TimeCST,TemperatureF,Dew PointF,Humidity,Sea Level PressureIn,VisibilityMPH,Wind Direction,Wind SpeedMPH,Gust SpeedMPH,PrecipitationIn,Events,Conditions,WindDirDegrees,DateUTC
12:15 AM,40.5,38.8,94,29.89,10.0,NNW,3.5,-,N/A,,Light Drizzle,330,2012-11-07 06:15:00
12:35 AM,40.5,38.7,93,29.89,10.0,NW,3.5,-,N/A,,Overcast,320,2012-11-07 06:35:00
12:55 AM,40.1,38.7,95,29.90,10.0,Calm,Calm,-,N/A,,Overcast,0,2012-11-07 06:55:00
1:15 AM,40.1,38.5,94,29.90,7.0,North,4.6,-,N/A,,Overcast,350,2012-11-07 07:15:00
1:35 AM,40.3,38.7,94,29.91,7.0,NNW,5.8,-,N/A,,Light Drizzle,330,2012-11-07 07:35:00
1:55 AM,40.3,38.3,93,29.91,7.0,NNW,4.6,-,N/A,,Overcast,330,2012-11-07 07:55:00
2:15 AM,40.1,38.3,93,29.92,7.0,NNW,3.5,-,N/A,,Overcast,330,2012-11-07 08:15:00
2:55 AM,39.2,37.4,93,29.93,7.0,NNW,4.6,-,N/A,,Overcast,340,2012-11-07 08:55:00
3:15 AM,39.4,37.4,93,29.93,7.0,NNW,6.9,-,N/A,,Overcast,340,2012-11-07 09:15:00
3:35 AM,38.5,36.5,93,29.94,7.0,NNW,4.6,-,N/A,,Mostly Cloudy,340,2012-11-07 09:35:00
3:55 AM,37.6,36.1,95,29.94,5.0,NNW,3.5,-,N/A,,Scattered Clouds,330,2012-11-07 09:55:00
4:15 AM,36.9,35.6,95,29.95,5.0,NNW,4.6,-,N/A,,Scattered Clouds,330,2012-11-07 10:15:00
4:35 AM,37.2,36.1,96,29.96,5.0,NNW,4.6,-,N/A,,Mostly Cloudy,340,2012-11-07 10:35:00
4:55 AM,37.8,36.5,95,29.98,5.0,NNW,4.6,-,N/A,,Overcast,330,2012-11-07 10:55:00
5:15 AM,38.3,36.5,93,29.98,7.0,North,5.8,-,N/A,,Overcast,350,2012-11-07 11:15:00
5:35 AM,38.5,36.3,92,29.99,7.0,North,6.9,-,N/A,,Overcast,10,2012-11-07 11:35:00
7:15 AM,39.0,36.0,89,30.04,7.0,North,8.1,-,N/A,,Overcast,350,2012-11-07 13:15:00
7:35 AM,39.2,36.0,88,30.06,7.0,North,6.9,-,N/A,,Overcast,350,2012-11-07 13:35:00
7:55 AM,39.2,36.3,89,30.07,5.0,NNW,8.1,-,N/A,,Overcast,340,2012-11-07 13:55:00
8:15 AM,39.2,36.0,88,30.07,7.0,NNW,8.1,-,N/A,,Overcast,340,2012-11-07 14:15:00
8:35 AM,39.4,36.3,89,30.08,7.0,NNW,8.1,-,N/A,,Overcast,340,2012-11-07 14:35:00
8:55 AM,40.1,36.5,87,30.08,7.0,NW,8.1,-,N/A,,Overcast,320,2012-11-07 14:55:00
9:15 AM,40.1,36.5,87,30.09,7.0,NNW,6.9,-,N/A,,Overcast,340,2012-11-07 15:15:00
9:35 AM,40.5,37.0,88,30.09,7.0,North,8.1,-,N/A,,Overcast,350,2012-11-07 15:35:00
9:55 AM,40.8,37.0,86,30.11,7.0,North,8.1,-,N/A,,Overcast,360,2012-11-07 15:55:00
10:15 AM,41.0,37.2,86,30.11,7.0,NNW,5.8,-,N/A,,Overcast,340,2012-11-07 16:15:00
10:35 AM,40.6,36.9,86,30.11,7.0,North,5.8,-,N/A,,Overcast,360,2012-11-07 16:35:00
10:55 AM,40.6,36.7,86,30.12,7.0,North,6.9,-,N/A,,Overcast,360,2012-11-07 16:55:00
11:15 AM,41.5,37.4,85,30.11,7.0,NNE,5.8,-,N/A,,Overcast,20,2012-11-07 17:15:00
11:35 AM,41.9,37.4,84,30.12,7.0,NNW,4.6,-,N/A,,Overcast,340,2012-11-07 17:35:00
11:55 AM,41.9,37.0,83,30.11,7.0,NNW,5.8,-,N/A,,Overcast,340,2012-11-07 17:55:00
12:15 PM,42.4,37.0,81,30.11,10.0,North,4.6,-,N/A,,Overcast,350,2012-11-07 18:15:00
12:35 PM,42.6,37.0,81,30.11,10.0,WNW,4.6,-,N/A,,Overcast,290,2012-11-07 18:35:00
12:55 PM,42.8,36.9,80,30.11,10.0,WNW,5.8,-,N/A,,Overcast,290,2012-11-07 18:55:00
1:15 PM,42.8,36.7,79,30.11,10.0,WNW,4.6,-,N/A,,Overcast,290,2012-11-07 19:15:00
1:35 PM,43.0,36.9,79,30.11,10.0,Calm,Calm,-,N/A,,Overcast,0,2012-11-07 19:35:00
1:55 PM,43.0,36.7,78,30.11,10.0,West,3.5,-,N/A,,Overcast,280,2012-11-07 19:55:00
2:15 PM,43.2,37.0,79,30.11,10.0,WSW,3.5,-,N/A,,Overcast,250,2012-11-07 20:15:00
2:35 PM,43.3,36.9,78,30.10,10.0,WSW,3.5,-,N/A,,Overcast,240,2012-11-07 20:35:00
2:55 PM,43.2,36.7,78,30.11,10.0,West,3.5,-,N/A,,Overcast,280,2012-11-07 20:55:00
3:15 PM,43.3,36.1,76,30.11,10.0,WNW,3.5,-,N/A,,Overcast,290,2012-11-07 21:15:00
3:35 PM,43.7,34.2,69,30.12,10.0,Calm,Calm,-,N/A,,Overcast,0,2012-11-07 21:35:00
3:55 PM,43.7,34.0,69,30.13,10.0,Calm,Calm,-,N/A,,Overcast,0,2012-11-07 21:55:00
4:15 PM,43.3,35.1,73,30.13,10.0,Calm,Calm,-,N/A,,Overcast,0,2012-11-07 22:15:00
4:35 PM,43.0,35.2,74,30.12,10.0,Calm,Calm,-,N/A,,Overcast,0,2012-11-07 22:35:00
4:55 PM,43.0,36.1,77,30.13,10.0,Calm,Calm,-,N/A,,Overcast,0,2012-11-07 22:55:00
5:15 PM,42.8,36.0,77,30.13,10.0,Calm,Calm,-,N/A,,Overcast,0,2012-11-07 23:15:00
5:35 PM,42.8,36.5,78,30.13,10.0,Calm,Calm,-,N/A,,Overcast,0,2012-11-07 23:35:00
5:55 PM,42.3,36.7,81,30.14,10.0,Calm,Calm,-,N/A,,Overcast,0,2012-11-07 23:55:00
6:15 PM,41.7,37.6,85,30.14,10.0,Calm,Calm,-,N/A,,Overcast,0,2012-11-08 00:15:00
6:35 PM,41.4,38.5,89,30.14,10.0,Calm,Calm,-,N/A,,Overcast,0,2012-11-08 00:35:00
6:55 PM,41.7,37.6,85,30.15,10.0,Calm,Calm,-,N/A,,Overcast,0,2012-11-08 00:55:00
7:15 PM,41.9,37.4,84,30.15,10.0,Calm,Calm,-,N/A,,Overcast,0,2012-11-08 01:15:00
7:35 PM,41.7,37.8,86,30.15,10.0,Calm,Calm,-,N/A,,Overcast,0,2012-11-08 01:35:00
7:55 PM,41.4,37.6,86,30.16,10.0,Calm,Calm,-,N/A,,Overcast,0,2012-11-08 01:55:00
8:15 PM,41.7,37.4,85,30.16,7.0,Calm,Calm,-,N/A,,Overcast,0,2012-11-08 02:15:00
8:35 PM,41.0,37.9,89,30.16,7.0,SE,3.5,-,N/A,,Overcast,130,2012-11-08 02:35:00
8:55 PM,40.5,38.5,93,30.16,7.0,Calm,Calm,-,N/A,,Overcast,0,2012-11-08 02:55:00
9:15 PM,40.3,38.1,92,30.17,10.0,Calm,Calm,-,N/A,,Overcast,0,2012-11-08 03:15:00
9:35 PM,40.5,37.9,91,30.17,10.0,SE,3.5,-,N/A,,Overcast,140,2012-11-08 03:35:00
9:55 PM,40.5,37.6,89,30.16,10.0,SSE,5.8,-,N/A,,Overcast,150,2012-11-08 03:55:00
10:15 PM,40.5,37.4,89,30.16,10.0,SSE,4.6,-,N/A,,Overcast,150,2012-11-08 04:15:00
10:35 PM,40.6,37.2,88,30.16,10.0,SSE,3.5,-,N/A,,Overcast,150,2012-11-08 04:35:00
10:55 PM,40.1,37.4,90,30.16,10.0,Calm,Calm,-,N/A,,Overcast,0,2012-11-08 04:55:00
11:15 PM,40.3,37.4,89,30.16,10.0,Calm,Calm,-,N/A,,Overcast,0,2012-11-08 05:15:00
11:35 PM,40.3,37.2,89,30.16,10.0,SSE,4.6,-,N/A,,Overcast,160,2012-11-08 05:35:00
11:55 PM,40.1,37.4,90,30.16,10.0,SSE,3.5,-,N/A,,Overcast,160,2012-11-08 05:55:00